Retour au catalogue

JILIN-1 GAOFEN 03D-51

ActifSciencePO
NORAD 54252·PAYLOAD·🇨🇳 China
Ce nom de satellite n'a pas encore été confirmé par des sources officielles.

Lancé Nov 16, 2022 depuis Jiuquan Satellite Launch Center

Loading…

Prochains Passages (prochaines 24 heures)

TLE

FraisSource: Space-Track

Époque: Sep 14, 2026, 13:54 UTC

1 54252U 22155B   26257.57934749  .00065331  00000-0  50248-3 0  9993
2 54252  97.6340  49.9606 0002568  18.9281 341.2077 15.71828068213740

Suivez JILIN-1 GAOFEN 03D-51 en temps réel avec AllMySat

Download on the App Store